{"data":{"norad_id":56906,"epoch":"2026-09-20T21:11:39.862464Z","epoch_age_seconds":84429,"freshness":"FRESH","line1":"1 56906U 23083AG  26263.88310026  .00000174  00000+0  15855-4 0  9998","line2":"2 56906  43.0034  48.0598 0001724 261.6601  98.4055 15.27578506181650","mean_motion":15.27578506,"eccentricity":0.0001724,"inclination_deg":43.0034,"raan_deg":48.0598,"arg_perigee_deg":261.6601,"mean_anomaly_deg":98.4055,"bstar":1.5855e-5,"rev_number":18165,"period_min":94.266840908273,"perigee_km":481.87070036256,"apogee_km":484.23643887096,"semimajor_km":6861.1905696168,"source":"CELESTRAK","updated_at":"2026-09-21T09:00:33.525765Z"}}